Lapse_Rate
6.7 6.7 6.8 6.8 7.1 7.1 7.1 7.1 6.9 6.9 7.0 7.3 7.6 7.8 7.7 7.7 7.9 7.8 7.8 7.8 7.8 7.6 7.5 7.4 7.4 7.2 7.0 6.9 7.0 7.0 7.1 7.3 7.4 7.4 7.3 7.4 7.4 7.5 7.5 7.5 7.6 7.6 7.7 7.6 8.0 8.1 8.2 7.8 8.0
6.5 6.5 6.6 6.8 7.0 6.9 7.1 7.0 6.8 7.0 7.1 7.2 7.5 7.7 7.9 8.2 8.1 8.1 8.3 8.0 7.8 7.8 7.5 7.4 7.5 7.6 7.6 7.4 7.4 7.4 7.4 7.4 7.4 7.5 7.4 7.3 7.4 7.4 7.5 7.6 7.7 7.7 7.8 7.9 7.9 8.2 8.0 8.2 8.1
6.4 6.4 6.6 6.8 6.9 6.6 6.4 6.8 7.0 7.0 7.3 7.3 7.1 7.3 7.3 7.7 8.0 8.2 8.2 7.9 7.7 7.5 7.5 7.5 7.4 7.4 7.3 7.3 7.3 7.4 7.4 7.3 7.3 7.3 7.3 7.2 7.3 7.3 7.3 7.4 7.6 7.7 7.9 7.9 8.0 8.1 8.1 8.2 8.3
5.9 6.1 6.3 6.5 6.2 6.0 6.3 6.4 6.9 7.3 7.5 7.5 7.4 7.5 7.8 8.1 8.0 7.8 7.8 7.7 7.7 7.5 7.4 7.2 7.0 6.9 6.8 6.8 7.0 7.1 7.0 7.1 7.1 7.1 7.1 7.1 7.0 7.0 7.1 7.2 7.4 7.5 7.6 7.8 7.9 8.0 8.1 8.3 8.5
5.8 5.9 5.9 6.0 5.5 5.8 5.9 6.3 6.6 7.1 7.4 7.6 7.6 7.7 7.9 8.0 7.7 7.7 7.5 7.5 7.4 7.3 7.2 7.0 6.9 6.9 7.0 7.0 7.0 7.0 7.0 6.9 6.9 6.9 6.9 6.9 6.9 6.9 7.0 7.2 7.4 7.4 7.4 7.6 7.8 7.9 8.0 8.3 8.5
5.8 5.8 5.6 5.6 5.5 5.8 6.0 6.2 6.6 7.0 7.4 7.3 7.3 7.2 7.5 7.9 7.8 7.7 7.6 7.6 7.4 7.5 7.2 7.0 6.9 6.9 6.7 6.7 6.6 6.6 6.6 6.7 6.6 6.7 6.8 6.9 6.9 6.9 7.0 7.0 7.1 7.3 7.4 7.4 7.6 7.9 8.0 8.2 8.5
5.6 5.5 5.6 5.5 5.6 6.0 6.0 6.2 6.6 7.0 7.2 7.2 7.2 7.4 7.7 7.8 7.9 8.0 7.9 7.7 7.5 7.3 7.1 6.8 6.9 6.8 6.8 6.6 6.6 6.5 6.5 6.5 6.6 6.6 6.6 6.6 6.6 6.6 6.8 6.9 7.0 7.0 7.1 7.2 7.3 7.6 7.9 8.1 8.2
5.6 5.5 5.8 5.8 6.1 6.2 6.2 6.5 6.6 6.7 7.2 7.2 7.4 7.5 7.6 7.7 7.9 8.0 7.9 7.7 7.3 7.0 6.9 6.8 6.8 6.7 6.5 6.4 6.4 6.4 6.5 6.5 6.5 6.4 6.4 6.3 6.4 6.5 6.6 6.8 6.8 6.8 6.8 6.9 7.0 7.1 7.5 7.9 8.1
5.3 5.4 5.9 6.0 6.1 6.3 6.2 6.5 6.8 7.1 7.2 7.2 7.3 7.6 7.7 7.8 8.0 8.0 7.8 7.5 7.1 6.9 6.9 6.8 6.7 6.5 6.4 6.4 6.5 6.6 6.6 6.4 6.3 6.2 6.1 6.0 6.1 6.3 6.4 6.4 6.5 6.5 6.6 6.8 6.8 6.9 7.1 7.5 7.8
5.2 5.6 5.9 6.2 6.3 6.4 6.3 6.7 7.1 7.4 7.3 7.2 7.3 7.5 7.7 7.9 8.0 7.7 7.5 7.4 7.2 7.0 6.8 6.7 6.5 6.4 6.4 6.5 6.6 6.7 6.6 6.4 6.3 6.1 6.0 5.9 5.9 5.9 6.1 5.8 5.9 6.1 6.3 6.4 6.6 6.7 6.8 7.1 7.5
5.5 5.9 6.0 6.4 6.5 6.5 6.9 7.3 7.4 7.4 7.5 7.5 7.5 7.7 7.7 7.8 7.9 7.7 7.4 7.3 7.0 6.6 6.6 6.4 6.5 6.4 6.6 6.5 6.6 6.7 6.6 6.5 6.2 5.9 5.8 6.0 6.2 6.0 5.6 5.4 5.6 5.8 5.9 6.0 6.1 6.3 6.7 6.9 7.2
5.9 6.2 6.6 6.8 7.0 7.0 7.0 7.2 7.5 7.6 7.6 7.5 7.5 7.5 7.4 7.6 7.5 7.4 7.2 7.0 6.7 6.5 6.3 6.4 6.4 6.5 6.5 6.5 6.4 6.4 6.5 6.4 6.2 6.1 6.1 6.3 6.5 6.4 6.1 5.8 5.7 5.8 5.9 5.8 6.0 6.1 6.4 6.6 6.7
6.2 6.6 7.0 7.1 7.2 7.3 7.3 7.3 7.3 7.4 7.4 7.4 7.4 7.3 7.3 7.2 7.0 6.9 6.6 6.5 6.2 5.9 5.9 6.0 6.1 6.3 6.2 6.3 6.4 6.3 6.2 6.1 6.0 6.1 6.4 6.6 6.9 6.9 6.7 6.0 5.9 6.1 6.2 5.9 5.8 6.0 6.4 6.3 6.4
6.4 6.7 6.8 7.0 7.2 7.3 7.3 7.4 7.5 7.4 7.3 7.5 7.2 7.3 7.3 7.0 6.9 6.4 6.1 5.7 5.5 5.7 5.8 5.8 6.0 6.0 6.2 6.2 6.1 6.1 6.0 6.0 6.2 6.4 6.5 6.4 6.5 6.6 6.7 6.5 6.3 6.2 6.1 6.0 5.9 6.0 6.3 6.4 6.2
6.4 6.6 6.7 7.0 7.3 7.4 7.5 7.5 7.5 7.4 7.6 7.6 7.7 7.7 7.5 7.2 6.8 6.2 5.9 5.6 5.6 5.7 5.8 5.8 6.0 5.9 5.8 5.8 5.7 5.7 5.9 5.8 6.1 6.3 6.4 6.4 6.3 6.4 6.3 6.2 5.9 6.0 6.2 6.2 6.0 6.1 6.4 6.6 6.5
6.3 6.3 6.7 7.3 7.6 7.5 7.3 7.5 7.7 7.7 7.6 7.6 7.7 7.9 7.7 7.3 6.7 6.2 5.9 5.8 6.0 6.0 5.9 5.9 5.9 5.8 5.8 5.7 5.7 5.8 5.8 6.0 6.4 6.5 6.4 6.2 6.1 6.1 6.1 6.2 6.2 6.1 5.8 5.6 5.7 5.6 5.8 6.3 6.4
6.6 6.8 7.1 7.6 7.6 7.2 7.2 7.5 7.7 7.9 7.7 7.8 7.8 7.7 7.6 7.4 6.9 6.6 6.2 6.1 6.1 6.1 5.9 5.9 5.8 5.7 5.6 5.6 5.7 5.7 5.8 6.3 6.4 6.4 6.3 6.2 6.0 5.9 6.0 6.1 6.2 6.3 6.2 5.8 5.5 5.7 5.8 5.4 5.7
7.2 7.0 7.3 7.0 7.5 7.3 7.1 7.5 7.6 8.1 8.0 8.0 7.8 7.5 7.6 7.4 6.8 6.8 6.5 6.5 6.3 6.4 6.1 6.0 5.7 5.5 5.5 5.5 5.6 5.9 6.4 6.5 6.6 6.5 6.4 6.3 6.3 6.3 6.3 6.3 6.3 6.1 6.1 6.0 5.9 5.4 5.5 5.5 5.8
7.0 7.3 7.4 7.5 7.7 7.4 7.7 7.9 8.0 8.2 8.2 8.1 8.0 7.7 7.4 6.9 6.7 6.5 6.6 6.5 6.6 6.5 6.1 5.9 5.8 5.7 5.6 5.6 5.7 5.9 6.2 6.3 6.3 6.3 6.2 6.2 6.2 6.2 6.3 6.4 6.5 6.5 6.3 6.0 5.9 5.8 5.7 5.6 5.6
7.2 7.4 7.7 7.9 8.0 8.1 8.4 8.5 8.6 8.3 8.1 8.0 7.5 7.5 7.4 6.8 6.7 6.8 6.8 6.9 6.7 6.5 6.1 5.8 5.8 5.8 5.8 5.8 5.9 6.2 6.4 6.5 6.5 6.5 6.3 6.2 6.2 6.1 6.2 6.3 6.3 6.3 6.2 6.2 6.2 6.1 6.0 6.0 5.8
7.7 7.8 8.1 8.1 8.1 8.3 8.3 8.1 8.1 8.0 8.2 8.1 7.7 7.5 6.9 6.6 6.7 6.6 6.7 6.9 6.8 6.6 6.0 5.7 5.7 5.6 5.9 6.1 6.4 6.6 6.7 6.5 6.5 6.4 6.2 6.1 6.1 6.1 6.1 6.1 6.2 6.1 6.0 5.9 5.8 5.8 5.9 6.0 6.1
8.0 8.1 8.2 8.2 8.2 7.9 8.0 7.0 7.9 8.0 8.1 8.1 7.9 7.6 7.3 7.0 6.5 5.9 6.3 6.6 6.1 6.1 5.6 5.4 5.7 5.7 6.1 6.6 6.3 6.5 6.6 6.6 6.6 6.6 6.5 6.4 6.3 6.5 6.5 6.5 6.4 6.3 6.2 6.1 6.0 5.8 5.7 5.6 5.7
7.9 8.0 8.0 8.0 7.9 7.7 7.8 7.2 8.2 8.3 8.1 7.8 7.7 7.6 7.3 7.1 6.6 5.8 5.8 5.4 5.5 5.5 6.1 6.0 5.9 6.1 6.5 6.2 6.4 6.6 6.7 6.6 6.6 6.6 6.6 6.5 6.5 6.4 6.3 6.3 6.3 6.2 6.2 6.1 6.1 6.0 5.9 5.8 5.8
8.1 8.1 7.9 7.8 7.9 6.7 8.2 7.7 7.9 8.0 8.1 8.1 7.9 7.2 7.2 7.0 6.5 6.1 5.8 5.3 5.9 5.5 5.8 6.2 6.2 6.2 6.4 6.5 6.7 6.8 6.7 6.7 6.7 6.7 6.7 6.6 6.4 6.3 6.2 6.2 6.1 6.0 6.0 5.9 5.9 5.9 5.9 6.0 5.9
7.6 7.6 7.1 6.4 5.9 5.6 7.4 7.3 7.6 7.6 7.7 7.8 7.4 7.0 7.1 6.9 6.6 5.5 5.3 5.5 5.4 5.6 6.6 6.5 6.2 6.3 6.5 6.8 6.8 6.8 6.7 6.5 6.7 6.7 6.7 6.5 6.2 6.2 6.2 6.1 6.1 5.9 5.8 5.8 5.8 5.8 5.8 5.7 5.6
7.3 7.5 7.4 6.2 5.8 6.0 7.5 7.2 7.3 7.7 7.5 7.2 7.0 6.9 7.2 6.9 6.6 5.9 6.1 5.9 5.2 5.7 6.0 6.2 6.4 6.6 6.8 6.9 6.8 6.7 6.4 6.6 6.7 6.9 6.5 6.2 6.1 6.1 6.2 6.1 5.8 5.5 5.6 5.7 5.7 5.6 5.4 5.1 5.0
7.1 7.1 7.1 7.0 6.7 6.3 7.3 7.6 7.7 7.2 7.2 6.9 6.9 7.0 7.0 6.7 6.3 5.9 6.0 6.2 5.3 6.1 6.5 6.5 6.6 6.7 6.8 6.7 6.6 6.4 6.5 6.7 6.7 6.5 6.3 6.2 6.2 6.2 6.1 5.9 5.8 5.8 5.7 5.6 5.4 5.1 4.9 4.8 4.8
6.9 6.8 6.9 7.3 5.1 5.3 6.8 7.2 6.5 6.5 6.5 6.6 6.6 6.6 6.4 6.2 6.1 6.0 6.0 5.4 6.1 6.5 6.6 6.7 6.6 6.6 6.4 6.6 6.4 6.4 6.5 6.5 6.4 6.3 6.0 6.0 5.9 5.9 5.8 5.8 5.6 5.4 5.2 5.1 5.1 5.0 4.8 4.8 4.6
6.2 6.3 6.4 6.4 6.5 4.2 5.3 7.0 6.8 6.3 6.1 6.5 6.3 6.5 6.2 6.0 6.0 5.3 5.9 5.8 6.2 6.5 6.5 6.4 6.3 6.6 6.3 6.2 6.4 6.4 6.2 6.2 6.2 6.1 6.1 5.9 5.9 6.0 6.0 5.6 5.3 5.1 5.2 5.1 5.0 4.9 4.9 4.9 4.7
5.8 5.9 5.9 6.0 5.9 6.5 6.8 6.6 7.0 6.1 6.1 6.0 5.8 6.0 6.1 5.6 5.4 5.6 6.1 6.0 6.1 6.1 6.1 6.0 6.4 6.0 6.1 6.1 6.2 6.2 6.1 6.2 6.2 6.1 5.9 5.8 6.0 5.9 5.7 5.3 5.3 5.3 5.3 5.0 5.1 5.2 5.1 5.0 4.8
Wind_Speed
5 3 2 4 3 4 3 5 1 3 3 2 2 3 7 5 2 3 2 6 9 8 12 11 12 11 11 14 15 11 8 6 8 6 7 8 10 10 10 11 11 11 10 10 8 6 11 10 11
5 3 3 2 4 2 4 3 5 4 6 9 6 4 5 4 5 8 6 6 11 11 12 12 12 12 12 12 10 8 8 5 5 6 5 7 8 9 10 10 11 11 10 8 8 9 12 10 13
4 3 3 4 3 3 3 2 5 9 10 2 4 5 3 3 8 3 9 9 12 9 12 12 11 10 9 9 8 7 7 5 5 6 5 6 7 8 9 10 10 10 9 8 7 9 11 9 12
2 4 4 4 3 5 3 3 9 5 4 7 5 8 4 4 6 7 10 12 8 7 12 12 10 9 8 7 6 6 5 5 5 6 6 7 7 8 8 8 9 9 9 8 7 9 10 13 11
4 3 4 2 3 4 4 4 6 4 4 3 3 4 4 3 12 14 11 8 8 7 11 10 9 8 6 6 5 5 4 4 4 4 5 6 7 7 7 7 7 7 7 7 7 7 10 11 13
4 3 3 2 3 2 3 3 5 4 3 6 5 5 3 9 12 9 9 7 7 8 11 9 8 7 5 5 5 5 4 3 2 2 3 4 4 5 6 6 6 6 6 6 6 7 8 8 7
5 3 4 3 3 1 4 2 3 5 5 3 4 4 5 8 9 9 7 7 8 9 10 7 6 6 6 5 5 3 3 2 0 1 2 3 4 4 5 6 6 7 7 6 5 6 7 7 7
4 4 2 4 4 5 3 3 2 5 3 3 1 5 6 6 10 10 8 7 5 5 6 6 6 6 5 4 5 4 2 1 1 2 3 4 4 5 5 5 6 7 8 7 7 6 5 6 7
3 4 2 4 5 3 4 4 3 2 5 3 2 4 8 15 12 10 7 4 3 2 3 6 7 7 6 5 4 4 2 2 2 3 4 5 5 6 7 7 7 8 8 8 7 5 5 5 5
4 3 6 4 5 6 4 4 7 4 3 3 6 9 15 14 12 11 7 5 4 5 6 8 7 8 7 2 2 3 4 4 4 5 6 6 7 9 9 10 10 10 9 9 8 6 5 4 4
4 4 3 2 3 5 6 4 2 8 2 4 14 15 13 13 11 11 9 8 11 10 5 8 6 7 6 5 5 6 7 6 7 7 7 8 9 9 11 12 11 11 9 9 8 7 4 3 3
0 3 2 4 4 5 4 4 4 3 3 10 13 11 8 11 10 11 10 11 10 8 7 3 7 7 7 7 7 8 5 6 9 10 9 12 10 9 10 9 10 11 10 10 9 9 7 6 3
3 1 4 6 9 7 6 4 5 3 5 11 10 9 12 11 11 7 11 11 7 5 5 7 7 7 9 6 4 1 3 4 5 6 8 9 8 7 10 10 10 12 11 12 11 10 9 8 8
3 5 3 6 4 5 7 4 3 3 5 9 11 11 10 10 9 4 5 7 5 6 6 6 7 9 8 3 2 4 4 4 5 6 7 6 9 9 8 8 9 11 11 12 11 9 8 7 6
7 5 4 1 3 2 6 2 4 11 9 10 10 8 7 7 7 11 8 5 7 5 7 8 8 9 2 1 2 0 3 4 7 9 11 10 10 10 10 7 7 12 12 13 10 8 6 4 5
3 4 3 4 7 2 2 6 3 10 12 12 9 6 8 8 9 9 7 7 7 6 8 7 1 5 4 2 3 4 6 8 10 13 14 16 14 9 6 4 5 9 7 7 5 3 3 4 3
4 3 4 5 8 5 1 4 6 9 10 11 9 8 7 6 8 8 7 7 8 6 4 3 3 3 3 4 6 9 13 12 13 15 14 15 16 17 13 9 9 12 6 3 3 4 3 3 4
3 3 3 5 3 4 4 6 10 12 11 11 8 7 7 8 12 7 5 6 7 6 6 6 4 3 4 5 7 7 8 10 14 13 14 16 14 15 13 10 11 12 4 4 4 4 2 4 4
1 3 5 4 6 6 10 6 13 14 11 10 8 9 10 9 3 6 6 7 8 7 8 7 8 7 4 4 2 2 2 2 3 9 12 14 14 14 13 9 9 9 5 4 5 4 3 2 3
4 4 7 7 3 8 4 8 6 12 18 16 12 12 11 6 6 6 6 6 6 8 8 8 7 7 5 4 2 2 2 3 3 6 9 10 12 11 9 7 5 6 4 5 5 4 3 3 2
4 5 5 8 2 2 4 5 4 4 5 7 7 6 7 6 7 6 7 5 7 8 7 7 6 6 6 5 2 2 3 2 2 2 2 4 7 8 9 9 8 6 4 3 3 3 4 2 3
3 5 4 5 4 3 3 4 5 4 6 4 3 3 6 9 11 12 10 9 7 7 7 6 6 6 5 5 2 2 1 1 2 1 1 3 4 6 6 7 8 7 5 4 3 3 2 2 4
6 3 1 2 3 3 1 1 6 4 3 3 5 9 10 13 16 13 10 3 3 4 5 5 5 4 4 1 2 2 1 1 1 1 2 2 4 6 7 7 6 5 4 4 5 5 4 2 3
3 4 6 4 3 1 4 5 5 2 3 2 7 11 11 14 12 12 5 4 4 1 4 3 3 2 2 1 2 3 1 2 1 2 2 3 2 3 5 6 7 7 6 4 4 4 5 4 3
6 5 3 3 3 5 0 2 3 5 9 8 12 11 12 13 14 7 4 4 4 4 3 3 2 0 2 1 1 1 1 3 2 3 2 4 3 2 4 3 4 4 7 8 7 5 5 4 3
1 5 4 5 3 5 1 3 2 6 9 11 11 11 12 12 8 2 6 7 5 5 5 4 3 2 2 2 3 3 5 3 2 3 3 4 3 4 5 6 6 8 9 8 6 3 4 4 4
2 2 2 1 3 2 2 2 3 8 7 7 9 10 9 8 5 6 6 8 5 5 6 5 2 2 4 4 4 5 5 4 4 6 4 4 5 4 5 7 5 7 7 7 5 3 5 4 5
6 2 3 4 2 3 4 3 3 2 9 8 6 6 7 6 5 8 9 4 5 6 4 3 2 4 4 5 5 5 5 5 5 5 6 6 5 4 5 6 6 5 5 6 5 4 5 5 5
5 4 5 5 4 3 1 4 3 10 7 6 5 8 8 8 7 5 4 5 6 3 2 1 2 5 6 6 6 6 5 6 5 4 4 3 4 5 6 6 8 5 6 6 5 5 6 6 7
3 3 3 4 4 0 1 4 6 7 8 4 5 7 4 5 4 4 4 4 5 4 4 4 2 2 5 5 5 6 5 5 5 4 5 4 5 6 6 7 7 6 5 6 6 6 6 7 8
Wind_Direction
150 137 68 40 52 66 261 252 299 115 124 73 31 117 107 34 78 148 108 88 98 90 98 100 98 95 84 78 73 84 82 74 71 65 58 59 51 43 37 39 40 39 39 47 66 72 67 47 62
142 126 51 77 85 59 267 249 184 157 123 125 80 69 50 88 68 114 114 99 98 102 105 101 96 88 82 84 98 110 102 85 71 80 54 61 45 36 33 30 35 38 36 43 70 52 39 42 57
133 54 80 93 117 180 253 303 101 124 146 93 99 51 72 87 123 98 123 116 109 113 116 110 100 98 98 94 98 92 92 76 56 50 55 47 46 36 29 23 26 30 35 38 37 32 30 30 59
105 16 37 89 210 254 227 54 115 103 51 40 90 70 71 341 146 128 131 124 119 112 105 111 109 105 97 99 98 94 82 70 48 34 29 22 31 29 28 22 22 23 28 27 34 16 6 14 28
39 61 59 37 263 273 344 94 114 131 96 55 91 124 71 37 112 126 133 133 124 103 113 117 120 117 112 112 113 104 92 77 57 32 23 16 14 16 16 15 16 20 24 26 29 30 13 20 23
43 96 73 221 257 292 110 102 111 91 95 132 98 104 79 122 125 135 135 116 112 122 127 128 135 130 124 129 128 126 120 114 94 42 7 5 7 1 360 3 3 6 15 26 30 26 32 32 22
121 92 197 188 243 215 152 97 79 106 110 96 157 94 122 156 142 133 110 102 121 125 127 131 134 136 133 134 143 142 157 134 65 342 329 340 341 342 347 351 348 353 356 2 18 39 44 28 23
111 94 163 226 206 228 135 80 61 61 105 102 22 140 161 164 137 106 98 98 110 129 138 149 160 160 154 156 171 157 142 191 256 304 302 295 305 314 325 326 332 339 341 345 354 9 43 54 46
123 57 280 246 151 203 163 109 25 50 96 89 325 125 141 130 118 106 103 86 111 155 185 192 198 191 183 185 186 185 193 237 260 286 293 288 282 290 297 298 300 314 325 328 339 347 2 27 38
102 120 235 219 170 158 126 106 136 128 138 89 92 96 118 130 133 132 139 160 191 204 216 214 205 203 198 199 233 237 222 233 249 249 261 268 273 278 285 290 295 301 302 316 328 331 346 13 16
160 198 233 35 96 94 114 91 102 135 196 180 156 136 134 136 145 149 168 181 197 204 204 211 192 207 200 209 232 241 240 243 256 266 271 274 268 276 287 292 288 284 287 297 309 308 319 336 342
180 247 267 132 93 84 93 86 52 23 303 135 139 132 134 149 163 165 179 201 205 198 207 134 205 214 225 235 245 258 254 262 252 254 277 261 263 275 278 287 292 284 284 286 286 287 288 283 251
200 83 37 76 82 79 88 62 122 32 95 117 129 142 158 169 186 186 200 204 183 177 183 192 194 219 227 215 217 261 264 286 295 289 282 266 260 257 281 283 289 284 287 282 281 273 268 275 275
32 87 78 36 73 111 116 154 103 235 151 134 154 168 177 185 188 194 222 217 172 180 187 186 190 209 213 198 164 223 260 292 290 291 297 286 272 264 253 261 267 271 269 280 285 286 291 280 272
152 79 59 37 169 152 154 164 192 168 168 163 177 181 184 201 185 214 220 185 191 194 188 192 198 200 145 206 223 4 349 349 347 343 339 322 299 278 257 256 259 264 270 261 248 268 274 268 283
47 58 109 221 172 193 44 258 144 168 169 183 187 193 205 213 216 223 208 189 185 170 194 200 156 96 127 104 47 31 34 49 52 51 45 33 18 346 312 293 290 301 282 272 254 223 241 234 240
1 207 200 302 190 143 163 258 163 175 184 193 202 208 211 224 233 218 185 191 179 194 167 97 96 102 106 69 61 71 75 65 54 49 41 35 34 32 38 27 13 358 333 294 266 252 211 245 239
236 239 253 236 190 154 165 255 172 185 189 199 205 218 218 216 229 204 172 110 104 99 97 91 74 74 86 77 93 78 72 60 51 45 38 41 39 38 35 25 17 11 8 8 353 302 231 236 250
315 218 253 254 203 151 215 213 192 189 200 206 205 210 219 218 207 106 111 117 108 74 89 76 74 43 70 63 40 61 63 56 47 43 41 43 35 29 29 15 9 10 14 0 359 328 319 279 242
229 246 263 281 206 175 168 226 198 192 208 206 199 209 207 173 142 125 126 106 90 100 89 80 74 61 53 59 48 52 67 79 75 50 47 35 26 21 15 9 358 1 355 357 358 9 334 302 309
251 201 246 225 106 71 111 317 201 229 228 213 227 235 217 171 143 95 91 86 96 93 90 85 76 72 61 54 33 26 40 32 35 14 4 15 16 6 2 1 359 351 357 344 338 331 355 316 311
272 203 227 179 126 227 136 274 277 219 233 218 300 57 62 80 61 47 31 49 44 63 71 71 73 69 61 50 45 87 151 209 240 210 269 319 354 340 341 344 346 336 332 328 321 336 305 291 289
227 46 46 90 124 59 260 80 263 21 279 14 102 102 95 96 98 84 71 35 62 77 85 93 90 82 74 97 127 101 105 272 273 289 331 330 325 339 351 344 333 319 318 300 299 306 307 288 285
108 65 44 48 73 66 239 151 283 3 317 11 80 81 91 94 94 91 112 130 95 197 95 101 113 82 67 70 56 93 92 305 332 309 322 309 290 304 325 327 319 313 305 295 287 280 274 279 271
62 55 322 334 7 227 169 75 253 348 330 155 118 97 95 91 78 54 37 303 216 193 186 191 181 89 272 31 1 32 335 267 267 282 277 300 306 282 298 295 298 289 291 287 283 272 263 265 259
272 153 168 243 224 253 291 235 323 79 62 83 89 101 96 87 97 190 279 276 252 200 216 206 205 238 267 320 325 318 274 277 278 268 277 283 269 283 288 295 291 285 288 286 287 274 266 260 257
354 20 278 106 14 30 290 296 98 117 93 97 112 106 104 121 156 212 254 234 218 208 215 204 226 327 332 329 324 289 277 289 285 295 290 286 279 285 292 300 292 290 294 282 281 271 268 257 260
86 356 24 6 356 289 315 333 285 274 158 156 161 124 105 102 221 244 226 211 214 218 196 196 347 354 319 326 304 286 300 307 308 316 314 307 298 283 289 294 291 281 290 284 281 279 272 262 265
352 27 54 111 110 158 301 280 4 309 185 181 158 134 175 198 213 196 220 219 218 208 177 231 288 354 341 325 311 309 314 325 330 326 311 305 293 296 307 300 289 280 280 281 279 267 269 262 263
71 102 97 109 281 252 163 293 8 80 108 129 155 187 140 141 149 160 235 237 220 215 224 236 13 331 352 326 330 336 333 342 350 342 316 325 324 317 300 299 295 285 296 294 281 280 275 271 269